GW0007 Weather Reports


Display with metric or nautical units.
time (UTC)temp
F
wind
direction
speed
MPH
gust
MPH
rain 1hr
in
rain 24hr
in
rain mn
in
humidity
%
barometer
mb
20260502184543 71 127 3.0 7.0 0.00 0.00 0.00 21 1017.0
20260502183037 69 356 5.0 8.0 0.00 0.00 0.00 24 1017.2
20260502181539 68 50 3.0 7.0 0.00 0.00 0.00 23 1017.4
20260502163050 64 288 3.0 8.0 0.00 0.00 0.00 30 1017.8
20260502161603 62 239 3.0 7.0 0.00 0.00 0.00 32 1017.9
20260502151544 56 290 3.0 8.0 0.00 0.00 0.00 37 1018.3
20260502123111 38 229 2.0 5.0 0.00 0.00 0.00 59 1018.2
20260502121544 39 252 1.0 8.0 0.00 0.00 0.00 56 1018.1
20260502114537 39 0 0.0 4.0 0.00 0.00 0.00 59 1017.9
20260502113036 40 269 2.0 5.0 0.00 0.00 0.00 54 1018.0
20260502111535 39 0 0.0 3.0 0.00 0.00 0.00 57 1018.0
20260502110048 39 257 1.0 3.0 0.00 0.00 0.00 56 1017.9
20260502104538 39 226 3.0 5.0 0.00 0.00 0.00 56 1017.9
20260502103036 39 252 2.0 5.0 0.00 0.00 0.00 57 1017.9
20260502101553 38 278 3.0 7.0 0.00 0.00 0.00 59 1017.9
20260502070041 42 254 1.0 6.0 0.00 0.00 0.00 55 1017.9
20260502064538 42 252 2.0 4.0 0.00 0.00 0.00 52 1017.9
20260502063051 43 295 0.0 2.0 0.00 0.00 0.00 50 1017.8
20260502061544 45 217 3.0 4.0 0.00 0.00 0.00 46 1017.6
20260502060043 45 254 0.0 2.0 0.00 0.00 0.00 47 1017.7
20260502054542 45 274 1.0 2.0 0.00 0.00 0.00 54 1017.7
20260502053041 45 257 1.0 2.0 0.00 0.00 0.00 48 1017.6
20260502051540 46 256 2.0 5.0 0.00 0.00 0.00 47 1017.6
20260502050038 46 288 1.0 1.0 0.00 0.00 0.00 52 1017.6
20260502044544 49 215 3.0 7.0 0.00 0.00 0.00 41 1017.5
20260502043046 50 247 5.0 7.0 0.00 0.00 0.00 40 1017.4
20260502041547 51 226 5.0 7.0 0.00 0.00 0.00 40 1017.4
20260502040058 53 293 2.0 4.0 0.00 0.00 0.00 36 1017.4
20260502034545 52 0 0.0 2.0 0.00 0.00 0.00 40 1017.3
20260502033044 55 250 2.0 7.0 0.00 0.00 0.00 34 1017.1
20260502031543 54 261 2.0 4.0 0.00 0.00 0.00 33 1016.7
20260502030042 57 275 2.0 6.0 0.00 0.00 0.00 32 1016.6
20260502024550 61 238 5.0 10.0 0.00 0.00 0.00 26 1016.6
20260502023045 63 247 7.0 11.0 0.00 0.00 0.00 23 1016.5
20260502021544 65 290 3.0 8.0 0.00 0.00 0.00 22 1016.4
20260502020043 67 244 5.0 11.0 0.00 0.00 0.00 20 1016.4
20260502014543 69 243 6.0 12.0 0.00 0.00 0.00 19 1016.3
20260502013038 70 231 6.0 12.0 0.00 0.00 0.00 18 1016.4
20260502011539 70 270 5.0 10.0 0.00 0.00 0.00 17 1016.4
20260502010049 71 253 5.0 13.0 0.00 0.00 0.00 17 1016.4
20260502004552 71 290 5.0 11.0 0.00 0.00 0.00 17 1016.5
20260502003035 71 304 5.0 12.0 0.00 0.00 0.00 17 1016.5
20260502001543 71 266 6.0 12.0 0.00 0.00 0.00 15 1016.5
20260502000041 71 223 7.0 15.0 0.00 0.00 0.00 15 1016.5
20260501234544 71 240 4.0 13.0 0.00 0.00 0.00 16 1016.5
20260501233039 70 329 7.0 14.0 0.00 0.00 0.00 17 1016.5
20260501231533 71 283 8.0 16.0 0.00 0.00 0.00 17 1016.6
20260501230035 71 288 8.0 16.0 0.00 0.00 0.00 18 1016.7
20260501224547 71 305 8.0 14.0 0.00 0.00 0.00 17 1016.7
20260501223040 70 229 7.0 18.0 0.00 0.00 0.00 17 1016.8
20260501221536 70 299 8.0 16.0 0.00 0.00 0.00 18 1017.2
20260501220050 71 309 7.0 14.0 0.00 0.00 0.00 18 1017.3
20260501214535 70 310 7.0 16.0 0.00 0.00 0.00 18 1017.3
20260501213048 69 252 10.0 19.0 0.00 0.00 0.00 19 1017.3
20260501211542 69 263 9.0 17.0 0.00 0.00 0.00 20 1017.6
20260501210046 69 323 8.0 15.0 0.00 0.00 0.00 21 1017.6
20260501204539 68 250 10.0 20.0 0.00 0.00 0.00 20 1017.9
20260501203034 69 290 9.0 18.0 0.00 0.00 0.00 22 1017.9
20260501201543 67 238 6.0 15.0 0.00 0.00 0.00 23 1018.0
20260501200038 67 219 5.0 14.0 0.00 0.00 0.00 23 1018.2
20260501194538 67 333 7.0 17.0 0.00 0.00 0.00 24 1018.3
20260501193036 66 225 11.0 18.0 0.00 0.00 0.00 24 1018.6
20260501191540 65 318 7.0 17.0 0.00 0.00 0.00 25 1018.7
20260501190032 65 271 8.0 18.0 0.00 0.00 0.00 26 1018.9